CAPE
0 0 0 0 0 0 0 0 0 0 0 0 0 0 0 0 0 0 0 0 0 0 0 0 0 0 0 0 0 0 29 49 143 0 3 2 3 2 1 1 1 0 1 1
0 0 0 0 0 0 0 0 0 0 0 0 0 0 0 0 0 0 0 0 0 0 0 0 0 0 0 0 0 0 0 31 98 167 1 3 2 6 3 2 0 1 4 0
0 0 0 0 0 0 0 0 0 0 0 0 0 0 0 0 0 0 0 0 0 0 0 0 0 0 0 0 0 0 0 0 49 98 66 1 0 1 0 2 2 3 2 0
0 0 0 0 0 0 0 0 0 0 0 0 0 0 0 0 0 0 0 0 0 0 0 0 0 0 0 0 0 0 0 0 0 37 81 4 1 1 0 2 1 1 1 0
0 0 0 0 0 0 0 0 0 0 0 0 0 0 0 0 0 0 0 0 0 0 0 0 0 0 0 0 0 0 0 0 0 0 4 0 1 0 0 3 6 3 2 1
0 0 0 0 0 0 0 0 0 0 0 0 0 0 0 0 0 0 0 0 0 0 0 0 0 0 0 0 0 0 0 0 0 0 1 6 2 2 2 2 1 2 6 5
0 0 0 0 0 0 0 0 0 0 0 0 0 0 0 0 0 0 0 0 0 0 0 0 0 0 0 0 0 0 0 0 0 0 0 0 0 1 1 0 0 0 0 0
0 0 0 0 0 0 0 0 0 0 0 0 0 0 0 0 0 0 0 0 0 0 0 0 0 0 0 0 0 0 0 0 0 0 0 0 0 0 0 0 0 0 0 0
0 0 0 0 0 0 0 0 0 0 0 0 0 0 0 0 0 0 0 0 0 0 0 0 0 0 0 0 0 0 0 0 0 0 0 0 0 0 0 0 0 0 0 0
0 0 0 0 0 0 0 0 0 0 0 0 0 0 0 0 0 0 0 0 0 0 0 0 0 0 0 0 0 0 0 0 0 0 0 0 0 0 0 0 0 0 0 0
0 0 0 0 0 0 0 0 0 0 0 0 0 0 0 0 0 0 0 0 0 0 0 0 0 0 0 0 0 0 0 0 0 0 0 0 0 0 0 0 0 0 0 0
0 0 0 0 0 0 0 0 0 0 0 0 0 0 0 0 0 0 0 0 0 0 0 0 0 0 0 0 0 0 0 0 0 0 0 0 0 0 0 0 0 0 0 0
0 0 0 0 0 0 0 0 0 0 0 0 0 0 0 0 0 0 0 0 0 0 0 0 0 0 0 0 0 0 0 0 0 0 0 0 0 0 0 0 0 0 0 0
0 0 0 0 0 0 0 0 0 0 0 0 0 0 0 0 0 0 0 0 0 0 0 0 0 0 0 0 0 0 0 0 0 0 0 0 0 0 0 0 0 0 0 0
0 0 0 0 0 0 0 0 0 0 0 0 0 0 0 0 0 0 0 0 0 0 0 0 0 0 0 0 0 0 0 0 0 0 0 0 0 0 0 0 0 0 0 0
0 0 0 0 0 0 0 0 0 0 0 0 0 0 0 0 0 0 0 0 0 0 0 0 0 0 0 0 0 0 0 0 0 0 0 0 0 0 0 0 0 0 0 0
0 0 0 0 0 0 0 0 0 0 0 0 0 0 0 0 0 0 0 0 0 0 0 0 0 0 0 0 0 0 0 0 0 0 0 0 0 0 0 0 0 0 0 0
0 0 0 0 0 0 0 0 0 0 0 0 0 0 0 0 0 0 0 0 0 0 0 0 0 0 0 0 0 0 0 0 0 0 0 0 0 0 0 0 0 0 0 0
0 0 0 0 0 0 0 0 0 0 0 0 0 0 0 0 0 0 0 0 0 0 0 0 0 0 0 0 0 0 0 0 0 0 0 0 0 0 0 0 0 0 0 0
0 0 0 0 0 0 0 0 0 0 0 0 0 0 0 0 0 0 0 0 0 0 0 0 0 0 0 0 0 0 0 0 0 0 0 0 0 0 0 0 0 0 0 0
0 0 0 0 0 0 0 0 0 0 0 0 0 0 0 0 0 0 0 0 0 0 0 0 0 0 0 0 0 0 0 0 0 0 0 0 0 0 0 0 0 0 0 0
0 0 0 0 0 0 0 0 0 0 0 0 0 0 0 0 0 0 0 0 0 0 0 0 0 0 0 0 0 0 0 0 0 0 0 0 0 0 0 0 0 0 0 0
0 0 0 0 0 0 0 0 0 0 0 0 0 0 0 0 0 0 0 0 0 0 0 0 0 0 0 0 0 0 0 0 0 0 0 0 0 0 0 0 0 0 0 0
0 0 0 0 0 0 0 0 0 0 0 0 0 0 0 0 0 0 0 0 0 0 0 0 0 0 0 0 0 0 0 0 0 0 0 0 0 0 0 0 0 0 0 0
0 0 0 0 0 0 0 0 0 0 0 0 0 0 0 0 0 0 0 0 0 0 0 0 0 0 0 0 0 0 0 0 0 0 0 0 0 0 0 0 0 0 0 0
0 0 0 0 0 0 0 0 0 0 0 0 0 0 0 0 0 0 0 0 0 0 0 0 0 0 0 0 0 0 0 0 0 0 0 0 0 0 0 0 0 0 0 0
CIN
-0 -0 -0 -0 -0 -0 -0 -0 -0 -0 -0 -0 -0 -0 -0 -0 -0 -0 -0 -0 -0 -0 -0 -0 -0 -0 -0 -0 -0 -0 -326 -254 -185 -1 -0 -0 -0 -0 -2 -1 -2 -1 -0 -0
-0 -0 -0 -0 -0 -0 -0 -0 -0 -0 -0 -0 -0 -0 -0 -0 -0 -0 -0 -0 -0 -0 -0 -0 -0 -0 -0 -0 -0 -0 -0 -317 -246 -201 -77 -195 -45 -443 -294 -1 -3 -2 -1 -0
-0 -0 -0 -0 -0 -0 -0 -0 -0 -0 -0 -0 -0 -0 -0 -0 -0 -0 -0 -0 -0 -0 -0 -0 -0 -0 -0 -0 -0 -0 -0 -0 -304 -242 -328 -1 -1 -0 -0 -0 -0 -0 -1 -0
-0 -0 -0 -0 -0 -0 -0 -0 -0 -0 -0 -0 -0 -0 -0 -0 -0 -0 -0 -0 -0 -0 -0 -0 -0 -0 -0 -0 -0 -0 -0 -0 -0 -332 -292 -176 -0 -46 -1 -1 -5 -6 -7 -3
-0 -0 -0 -0 -0 -0 -0 -0 -0 -0 -0 -0 -0 -0 -0 -0 -0 -0 -0 -0 -0 -0 -0 -0 -0 -0 -0 -0 -0 -0 -0 -0 -0 -0 -114 -1 -2 -1 -0 -1 -4 -6 -8 -7
-0 -0 -0 -0 -0 -0 -0 -0 -0 -0 -0 -0 -0 -0 -0 -0 -0 -0 -0 -0 -0 -0 -0 -0 -0 -0 -0 -0 -0 -0 -0 -0 -0 -0 -0 -1 -1 -1 -1 -5 -5 -4 -4 -3
-0 -0 -0 -0 -0 -0 -0 -0 -0 -0 -0 -0 -0 -0 -0 -0 -0 -0 -0 -0 -0 -0 -0 -0 -0 -0 -0 -0 -0 -0 -0 -0 -0 -0 -0 -3 -2 -1 -1 -1 -0 -0 -0 -0
-0 -0 -0 -0 -0 -0 -0 -0 -0 -0 -0 -0 -0 -0 -0 -0 -0 -0 -0 -0 -0 -0 -0 -0 -0 -0 -0 -0 -0 -0 -0 -0 -0 -0 -0 -0 -0 -0 -0 -0 -0 -0 -0 -0
-0 -0 -0 -0 -0 -0 -0 -0 -0 -0 -0 -0 -0 -0 -0 -0 -0 -0 -0 -0 -0 -0 -0 -0 -0 -0 -0 -0 -0 -0 -0 -0 -0 -0 -0 -0 -0 -0 -0 -0 -0 -0 -0 -0
-0 -0 -0 -0 -0 -0 -0 -0 -0 -0 -0 -0 -0 -0 -0 -0 -0 -0 -0 -0 -0 -0 -0 -0 -0 -0 -0 -0 -0 -0 -0 -0 -0 -0 -0 -0 -0 -0 -0 -0 -0 -0 -0 -0
-0 -0 -0 -0 -0 -0 -0 -0 -0 -0 -0 -0 -0 -0 -0 -0 -0 -0 -0 -0 -0 -0 -0 -0 -0 -0 -0 -0 -0 -0 -0 -0 -0 -0 -0 -0 -0 -0 -0 -0 -0 -0 -0 -0
-0 -0 -0 -0 -0 -0 -0 -0 -0 -0 -0 -0 -0 -0 -0 -0 -0 -0 -0 -0 -0 -0 -0 -0 -0 -0 -0 -0 -0 -0 -0 -0 -0 -0 -0 -0 -0 -0 -0 -0 -0 -0 -0 -0
-0 -0 -0 -0 -0 -0 -0 -0 -0 -0 -0 -0 -0 -0 -0 -0 -0 -0 -0 -0 -0 -0 -0 -0 -0 -0 -0 -0 -0 -0 -0 -0 -0 -0 -0 -0 -0 -0 -0 -0 -0 -0 -0 -0
-0 -0 -0 -0 -0 -0 -0 -0 -0 -0 -0 -0 -0 -0 -0 -0 -0 -0 -0 -0 -0 -0 -0 -0 -0 -0 -0 -0 -0 -0 -0 -0 -0 -0 -0 -0 -0 -0 -0 -0 -0 -0 -0 -0
-0 -0 -0 -0 -0 -0 -0 -0 -0 -0 -0 -0 -0 -0 -0 -0 -0 -0 -0 -0 -0 -0 -0 -0 -0 -0 -0 -0 -0 -0 -0 -0 -0 -0 -0 -0 -0 -0 -0 -0 -0 -0 -0 -0
-0 -0 -0 -0 -0 -0 -0 -0 -0 -0 -0 -0 -0 -0 -0 -0 -0 -0 -0 -0 -0 -0 -0 -0 -0 -0 -0 -0 -0 -0 -0 -0 -0 -0 -0 -0 -0 -0 -0 -0 -0 -0 -0 -0
-0 -0 -0 -0 -0 -0 -0 -0 -0 -0 -0 -0 -0 -0 -0 -0 -0 -0 -0 -0 -0 -0 -0 -0 -0 -0 -0 -0 -0 -0 -0 -0 -0 -0 -0 -0 -0 -0 -0 -0 -0 -0 -0 -0
-0 -0 -0 -0 -0 -0 -0 -0 -0 -0 -0 -0 -0 -0 -0 -0 -0 -0 -0 -0 -0 -0 -0 -0 -0 -0 -0 -0 -0 -0 -0 -0 -0 -0 -0 -0 -0 -0 -0 -0 -0 -0 -0 -0
-0 -0 -0 -0 -0 -0 -0 -0 -0 -0 -0 -0 -0 -0 -0 -0 -0 -0 -0 -0 -0 -0 -0 -0 -0 -0 -0 -0 -0 -0 -0 -0 -0 -0 -0 -0 -0 -0 -0 -0 -0 -0 -0 -0
-0 -0 -0 -0 -0 -0 -0 -0 -0 -0 -0 -0 -0 -0 -0 -0 -0 -0 -0 -0 -0 -0 -0 -0 -0 -0 -0 -0 -0 -0 -0 -0 -0 -0 -0 -0 -0 -0 -0 -0 -0 -0 -0 -0
-0 -0 -0 -0 -0 -0 -0 -0 -0 -0 -0 -0 -0 -0 -0 -0 -0 -0 -0 -0 -0 -0 -0 -0 -0 -0 -0 -0 -0 -0 -0 -0 -0 -0 -0 -0 -0 -0 -0 -0 -0 -0 -0 -0
-0 -0 -0 -0 -0 -0 -0 -0 -0 -0 -0 -0 -0 -0 -0 -0 -0 -0 -0 -0 -0 -0 -0 -0 -0 -0 -0 -0 -0 -0 -0 -0 -0 -0 -0 -0 -0 -0 -0 -0 -0 -0 -0 -0
-0 -0 -0 -0 -0 -0 -0 -0 -0 -0 -0 -0 -0 -0 -0 -0 -0 -0 -0 -0 -0 -0 -0 -0 -0 -0 -0 -0 -0 -0 -0 -0 -0 -0 -0 -0 -0 -0 -0 -0 -0 -0 -0 -0
-0 -0 -0 -0 -0 -0 -0 -0 -0 -0 -0 -0 -0 -0 -0 -0 -0 -0 -0 -0 -0 -0 -0 -0 -0 -0 -0 -0 -0 -0 -0 -0 -0 -0 -0 -0 -0 -0 -0 -0 -0 -0 -0 -0
-0 -0 -0 -0 -0 -0 -0 -0 -0 -0 -0 -0 -0 -0 -0 -0 -0 -0 -0 -0 -0 -0 -0 -0 -0 -0 -0 -0 -0 -0 -0 -0 -0 -0 -0 -0 -0 -0 -0 -0 -0 -0 -0 -0
-0 -0 -0 -0 -0 -0 -0 -0 -0 -0 -0 -0 -0 -0 -0 -0 -0 -0 -0 -0 -0 -0 -0 -0 -0 -0 -0 -0 -0 -0 -0 -0 -0 -0 -0 -0 -0 -0 -0 -0 -0 -0 -0 -0
Wind_Speed
37 38 41 40 37 34 32 35 30 28 25 27 32 33 30 25 21 21 21 18 15 17 15 15 13 9 3 4 5 6 5 5 4 5 6 8 6 7 7 6 6 6 6 6
37 44 39 35 33 32 29 33 32 26 26 28 28 35 32 30 28 25 25 24 20 17 17 14 15 12 8 5 5 6 6 6 6 6 7 10 9 11 12 13 12 10 10 10
38 39 30 32 33 32 32 34 30 29 25 26 28 33 29 25 26 24 24 24 23 17 17 16 15 14 14 10 7 6 6 7 7 8 8 10 16 16 14 14 14 13 13 14
38 31 34 34 36 33 33 29 24 24 25 30 26 26 24 23 22 23 22 20 18 16 15 16 16 16 17 17 16 12 10 8 8 8 9 11 13 15 16 16 15 15 14 15
33 36 36 39 36 31 28 24 23 22 26 25 26 29 27 20 23 21 19 18 17 16 15 15 16 17 17 17 15 13 11 11 10 10 11 14 16 18 19 20 18 17 18 18
31 26 31 31 28 29 21 21 21 22 26 34 30 30 29 24 25 18 17 16 16 15 13 13 13 14 15 14 13 11 10 11 12 12 13 14 17 20 21 22 23 23 22 21
32 31 30 27 28 26 28 27 28 31 32 34 27 30 30 22 20 17 16 16 14 12 12 11 11 12 13 13 12 11 10 11 12 12 14 16 16 18 20 21 22 23 24 25
38 39 34 31 34 34 34 32 31 35 34 34 27 34 30 21 19 18 14 14 12 11 10 10 10 9 10 11 11 11 10 10 10 11 12 13 14 15 17 18 19 20 22 23
39 36 30 29 28 28 34 39 27 26 27 32 31 32 27 22 22 18 14 11 10 9 8 7 8 8 9 10 10 11 11 11 12 12 13 14 15 15 16 18 19 21 22 24
33 37 30 29 26 27 32 26 34 32 36 38 33 34 31 26 23 18 15 11 8 7 6 6 6 7 8 9 10 11 12 12 13 13 14 15 17 17 18 19 21 22 24 25
29 32 33 28 37 35 32 34 34 31 33 37 38 36 25 26 20 17 14 11 9 7 5 5 5 6 7 8 10 11 12 12 13 14 15 16 18 19 20 22 23 25 26 28
29 28 34 36 28 29 32 35 35 38 38 35 33 35 23 21 15 14 12 11 9 8 6 5 5 6 7 8 10 11 12 13 14 15 16 18 19 21 23 24 26 27 29 30
33 31 35 35 35 33 38 36 36 34 30 37 39 36 25 20 15 12 11 10 10 9 8 8 8 8 8 9 10 11 13 14 15 16 18 19 21 23 25 27 28 30 32 33
30 35 40 43 40 31 39 39 35 34 39 39 40 33 27 22 19 15 14 13 12 11 11 10 9 8 9 10 11 12 13 15 17 18 19 21 23 25 27 29 31 33 34 35
32 42 39 40 33 31 35 38 36 38 42 39 44 38 34 27 23 19 17 16 15 15 14 13 11 10 10 11 12 13 15 17 18 19 21 24 26 28 30 32 34 35 36 37
33 38 37 42 36 36 38 36 35 39 42 42 41 39 31 25 21 19 19 18 18 17 16 16 13 12 12 12 13 14 15 17 19 21 24 26 29 32 33 35 37 38 39 39
36 38 38 49 39 40 50 46 40 40 41 39 47 41 30 27 26 23 22 22 21 20 18 16 15 12 12 12 13 15 16 18 20 23 26 29 31 34 36 37 39 40 42 42
34 37 37 44 35 55 51 41 40 43 43 40 44 40 33 30 27 25 24 24 22 20 18 16 13 12 12 12 13 14 17 20 23 26 28 31 33 36 38 40 42 42 42 43
34 34 38 41 43 41 42 38 36 37 48 40 41 40 35 29 26 29 26 23 21 19 16 14 12 11 11 12 14 16 19 22 25 28 31 33 36 39 41 43 44 44 45 46
33 37 41 36 48 53 54 38 29 30 54 40 37 36 32 26 36 34 23 21 19 16 14 13 11 11 12 14 16 18 21 24 27 31 34 36 38 40 43 44 45 44 45 47
40 38 42 45 45 46 38 29 21 39 48 32 30 31 30 33 34 26 18 18 16 15 14 12 11 13 14 15 17 20 22 26 29 32 35 38 39 42 42 43 44 46 47 48
39 40 42 44 46 55 28 26 36 38 33 31 28 27 27 27 23 18 16 16 15 14 12 12 12 13 15 17 19 22 26 29 32 35 38 39 41 42 43 45 46 47 48 51
37 35 36 35 41 31 23 31 27 27 28 26 22 18 16 16 15 13 13 12 12 13 12 11 13 14 15 19 22 27 29 32 35 37 39 41 42 43 44 47 49 50 50 53
32 28 31 31 31 30 29 28 25 25 26 22 17 13 11 11 11 10 9 9 10 11 11 11 12 15 18 22 25 27 30 32 35 37 40 42 43 45 45 46 48 52 52 53
31 29 34 37 32 28 30 28 23 21 17 15 12 11 10 9 9 9 10 9 10 10 11 12 15 18 21 24 26 28 31 33 37 39 41 43 44 47 50 49 49 51 49 49
29 31 35 38 30 28 27 22 19 17 16 13 11 12 11 10 10 9 9 10 10 11 13 15 18 21 24 27 29 30 31 33 37 40 42 43 46 48 49 52 55 48 49 50
Wind_Direction
214 215 217 218 223 229 231 230 237 239 244 245 245 247 251 258 266 266 266 274 284 282 292 296 301 304 236 204 213 213 219 227 237 269 278 289 283 298 305 310 313 317 324 322
215 219 220 222 225 229 231 232 236 243 246 247 252 249 254 255 257 262 263 267 278 287 292 301 301 301 295 272 242 239 240 241 250 276 280 295 299 302 304 308 307 305 310 314
217 219 220 221 225 227 232 234 237 246 246 252 256 256 256 259 261 266 269 272 280 291 294 301 305 304 299 292 278 257 252 257 264 273 293 296 305 306 307 306 308 309 309 310
222 226 223 224 226 228 235 240 239 243 244 248 252 259 256 258 263 266 271 277 285 294 301 302 304 304 302 299 295 286 278 270 277 280 288 295 296 300 307 310 312 314 313 314
223 221 222 222 225 231 238 237 238 244 248 255 254 257 261 266 263 267 273 280 287 294 301 306 307 307 307 306 306 300 287 283 287 288 289 297 298 302 307 311 313 314 316 316
229 234 229 230 231 233 229 234 243 251 252 252 253 255 261 265 263 267 276 282 289 297 305 312 316 318 319 319 320 316 308 299 298 297 297 302 304 304 306 309 311 314 318 320
225 226 232 231 228 229 232 229 242 245 247 251 257 257 258 272 273 271 274 281 290 298 307 313 319 322 328 331 336 336 329 321 318 313 311 311 313 313 313 314 316 317 319 321
222 227 226 230 231 232 231 231 242 245 249 252 258 258 263 267 274 278 282 284 291 297 306 316 325 334 340 343 347 351 352 349 346 342 336 332 330 328 328 328 328 328 329 330
225 231 233 236 237 232 232 236 248 253 259 258 258 262 270 270 266 271 276 279 285 293 305 318 333 343 352 355 358 359 0 2 1 359 356 353 350 347 345 343 340 338 337 334
233 232 236 238 241 242 240 237 243 250 251 255 260 262 263 264 261 262 264 266 269 286 298 314 329 345 355 357 2 3 5 2 5 3 0 357 354 352 350 348 345 342 340 338
235 238 235 237 237 236 239 240 246 252 255 257 259 265 272 269 260 256 255 256 256 259 272 294 314 334 344 347 349 352 353 355 355 356 356 355 353 351 349 346 343 340 338 336
237 241 237 237 248 249 246 246 242 248 253 258 264 266 282 279 265 257 252 252 255 260 263 272 293 313 326 337 344 347 349 348 350 350 351 349 350 348 343 341 341 339 336 334
232 240 238 242 248 249 245 245 247 251 261 257 257 264 278 278 270 262 252 249 250 253 258 268 279 295 309 323 333 338 341 344 346 347 346 344 342 341 340 338 337 336 333 332
236 243 242 242 248 248 247 245 248 250 255 258 259 267 271 269 265 262 259 254 248 249 254 263 275 285 299 314 324 332 336 338 340 341 341 341 340 339 338 336 335 334 333 332
240 243 246 249 255 254 254 249 248 249 253 257 262 266 270 266 264 262 257 251 251 251 254 263 268 280 294 306 315 323 328 333 337 338 338 337 337 336 335 334 333 331 331 330
243 249 249 251 255 258 257 256 252 252 255 259 265 269 278 270 269 261 259 254 252 252 257 262 268 277 287 299 311 321 327 329 333 333 333 333 332 332 331 330 329 329 330 330
239 246 250 253 258 260 258 253 252 257 258 259 261 267 275 270 263 259 256 251 251 254 256 258 265 272 287 299 309 316 322 327 329 329 329 330 330 328 328 328 328 328 328 329
241 245 252 256 256 254 261 263 258 258 262 261 266 270 270 267 265 262 256 251 251 251 251 254 258 270 286 299 309 317 321 323 325 326 326 327 327 326 326 326 326 327 328 328
246 246 253 254 255 266 263 262 257 257 263 264 264 267 269 270 270 269 261 256 252 249 248 251 259 273 287 299 308 313 318 321 322 323 324 325 325 324 324 324 325 327 327 327
249 250 250 258 256 258 261 265 268 267 267 266 264 265 263 263 264 270 258 255 249 241 241 245 259 275 287 300 308 312 315 317 319 322 322 323 324 323 323 324 324 326 326 325
247 249 247 252 260 265 268 270 260 259 270 276 265 264 257 258 265 271 255 251 241 240 239 248 262 276 290 301 305 309 313 316 320 322 322 322 323 323 324 324 325 325 325 324
244 246 252 254 257 262 269 263 257 270 280 282 280 273 263 265 266 259 249 241 234 232 239 250 265 280 292 299 304 308 311 316 319 320 320 321 322 323 324 323 324 324 324 323
249 251 251 253 259 270 264 272 272 281 280 283 283 277 267 261 254 249 241 233 231 234 245 258 270 281 293 302 307 307 312 316 318 319 319 320 322 323 323 323 323 323 323 321
255 258 258 260 265 265 264 275 277 282 282 281 280 274 262 253 247 241 233 231 237 246 257 268 276 286 295 304 308 311 314 317 318 319 320 321 321 322 324 324 323 321 321 321
260 258 259 263 270 275 270 271 276 276 281 281 280 273 261 247 246 238 235 238 245 256 268 278 286 292 298 305 309 313 316 318 317 318 319 321 322 322 322 322 322 322 321 320
261 263 260 266 271 274 279 267 270 268 268 271 272 272 267 252 245 238 245 252 256 265 277 284 292 297 301 306 309 313 317 319 318 319 321 322 322 322 323 323 322 323 321 321